When you browse on this site, cookies collect data to enhance your experience and personalize the content and advertising you see.
Visit our Privacy Policy to learn more. By continuing to use the site, you agree to this use of cookies and data.
  • In Czech Republic
  • List of Countries
  • For 7 days
  • Water Temperature
  • Satellite Maps
  • Weather Map
  • Weather Widgets
  • user-avatar
    Login

    Hourly Weather Cobán

    Today, 20 July, Saturday

    Time Temperature Precipitation Wind Pressure Humidity
    00:00 +16°C° 0 mm 0 mps 654 mmHg 97%
    01:00 +16°C° 0 mm 0 mps 654 mmHg 96%
    02:00 +15°C° 0 mm 0 mps 653 mmHg 96%
    03:00 +15°C° 0 mm 0 mps 652 mmHg 96%
    04:00 +15°C° 0 mm 0 mps 652 mmHg 96%
    05:00 +15°C° 0 mm 0 mps 653 mmHg 95%
    06:00 +15°C° 0 mm 0 mps 653 mmHg 95%
    07:00 +17°C° 0 mm 0 mps 653 mmHg 89%
    08:00 +19°C° 0 mm 0 mps 654 mmHg 82%
    09:00 +21°C° 0 mm 0 mps 655 mmHg 75%
    10:00 +24°C° 0.2 mm 1 mps 655 mmHg 71%
    11:00 +25°C° 0.2 mm 1 mps 655 mmHg 67%
    12:00 +27°C° 0.2 mm 1 mps 655 mmHg 63%
    13:00 +26°C° 1.6 mm 1 mps 654 mmHg 71%
    14:00 +25°C° 1.6 mm 1 mps 654 mmHg 80%
    15:00 +24°C° 1.6 mm 1 mps 653 mmHg 88%
    16:00 +23°C° 1.1 mm 1 mps 653 mmHg 91%
    17:00 +22°C° 1.1 mm 1 mps 653 mmHg 93%
    18:00 +21°C° 1.1 mm 1 mps 653 mmHg 96%
    19:00 +18°C° 0.5 mm 0 mps 653 mmHg 97%
    20:00 +18°C° 0.5 mm 0 mps 654 mmHg 97%
    21:00 +17°C° 0.5 mm 0 mps 654 mmHg 98%
    22:00 +19°C° 2 mm 1 mps 654 mmHg 98%
    23:00 +19°C° 2 mm 1 mps 654 mmHg 98%

    Tomorrow, 21 July, Sunday

    Time Temperature Precipitation Wind Pressure Humidity
    00:00 +19°C° 2 mm 1 mps 654 mmHg 98%
    01:00 +19°C° 1.6 mm 1 mps 653 mmHg 98%
    02:00 +18°C° 1.6 mm 1 mps 653 mmHg 98%
    03:00 +18°C° 1.6 mm 1 mps 653 mmHg 97%
    04:00 +18°C° 0 mm 1 mps 653 mmHg 97%
    05:00 +18°C° 0 mm 1 mps 653 mmHg 96%
    06:00 +18°C° 0 mm 1 mps 653 mmHg 96%
    07:00 +19°C° 0 mm 1 mps 653 mmHg 90%
    08:00 +21°C° 0 mm 1 mps 654 mmHg 84%
    09:00 +22°C° 0 mm 1 mps 655 mmHg 78%
    10:00 +23°C° 0.1 mm 1 mps 655 mmHg 73%
    11:00 +25°C° 0.1 mm 1 mps 655 mmHg 68%
    12:00 +26°C° 0.1 mm 1 mps 655 mmHg 63%
    13:00 +25°C° 0.6 mm 1 mps 655 mmHg 70%
    14:00 +25°C° 0.6 mm 1 mps 654 mmHg 76%
    15:00 +24°C° 0.6 mm 1 mps 653 mmHg 83%
    16:00 +23°C° 1 mm 1 mps 653 mmHg 88%
    17:00 +20°C° 1 mm 0 mps 653 mmHg 92%
    18:00 +19°C° 1 mm 0 mps 653 mmHg 97%
    19:00 +18°C° 1 mm 0 mps 653 mmHg 97%
    20:00 +18°C° 1 mm 0 mps 654 mmHg 97%
    21:00 +17°C° 1 mm 0 mps 654 mmHg 97%
    22:00 +17°C° 1.3 mm 0 mps 654 mmHg 97%
    23:00 +17°C° 1.3 mm 0 mps 654 mmHg 97%

    Day after tomorrow, 22 July, Monday

    Time Temperature Precipitation Wind Pressure Humidity
    00:00 +17°C° 1.3 mm 0 mps 654 mmHg 98%
    01:00 +17°C° 1.5 mm 0 mps 654 mmHg 98%
    02:00 +17°C° 1.5 mm 0 mps 653 mmHg 98%
    03:00 +16°C° 1.5 mm 0 mps 653 mmHg 98%
    04:00 +16°C° 1.2 mm 0 mps 653 mmHg 98%
    05:00 +16°C° 1.2 mm 0 mps 653 mmHg 98%
    06:00 +16°C° 1.2 mm 0 mps 653 mmHg 98%
    07:00 +18°C° 0.3 mm 0 mps 654 mmHg 94%
    08:00 +19°C° 0.3 mm 0 mps 655 mmHg 89%
    09:00 +20°C° 0.3 mm 0 mps 655 mmHg 85%
    10:00 +24°C° 0 mm 1 mps 656 mmHg 75%
    11:00 +26°C° 0 mm 1 mps 656 mmHg 65%
    12:00 +28°C° 0 mm 1 mps 656 mmHg 55%
    13:00 +27°C° 0.5 mm 1 mps 655 mmHg 60%
    14:00 +27°C° 0.5 mm 1 mps 655 mmHg 65%
    15:00 +26°C° 0.5 mm 1 mps 654 mmHg 70%
    16:00 +25°C° 0.6 mm 1 mps 654 mmHg 78%
    17:00 +23°C° 0.6 mm 1 mps 654 mmHg 86%
    18:00 +22°C° 0.6 mm 1 mps 653 mmHg 95%
    19:00 +21°C° 0.4 mm 1 mps 654 mmHg 96%
    20:00 +20°C° 0.4 mm 1 mps 654 mmHg 97%
    21:00 +19°C° 0.4 mm 1 mps 654 mmHg 98%
    22:00 +19°C° 0 mm 1 mps 654 mmHg 98%
    23:00 +18°C° 0 mm 1 mps 654 mmHg 97%

    23 July, Tuesday

    Time Temperature Precipitation Wind Pressure Humidity
    00:00 +16°C° 0 mm 0 mps 654 mmHg 97%
    01:00 +16°C° 0 mm 0 mps 654 mmHg 97%
    02:00 +15°C° 0 mm 0 mps 653 mmHg 96%
    03:00 +15°C° 0 mm 0 mps 653 mmHg 96%
    04:00 +15°C° 0 mm 0 mps 653 mmHg 96%
    05:00 +15°C° 0 mm 0 mps 653 mmHg 95%
    06:00 +15°C° 0 mm 0 mps 653 mmHg 95%
    07:00 +18°C° 0 mm 0 mps 654 mmHg 84%
    08:00 +20°C° 0 mm 0 mps 655 mmHg 74%
    09:00 +23°C° 0 mm 0 mps 657 mmHg 63%
    10:00 +26°C° 0 mm 1 mps 656 mmHg 59%
    11:00 +27°C° 0 mm 1 mps 656 mmHg 55%
    12:00 +28°C° 0 mm 2 mps 656 mmHg 51%
    13:00 +27°C° 0.6 mm 1 mps 655 mmHg 61%
    14:00 +26°C° 0.6 mm 1 mps 654 mmHg 70%
    15:00 +25°C° 0.6 mm 1 mps 654 mmHg 79%
    16:00 +24°C° 0.7 mm 1 mps 654 mmHg 84%
    17:00 +23°C° 0.7 mm 1 mps 653 mmHg 89%
    18:00 +20°C° 0.7 mm 0 mps 653 mmHg 95%
    19:00 +19°C° 0.2 mm 0 mps 654 mmHg 95%
    20:00 +20°C° 0.2 mm 1 mps 654 mmHg 96%
    21:00 +19°C° 0.2 mm 1 mps 654 mmHg 97%
    22:00 +18°C° 0 mm 1 mps 654 mmHg 97%
    23:00 +16°C° 0 mm 0 mps 654 mmHg 97%

    24 July, Wednesday

    Time Temperature Precipitation Wind Pressure Humidity
    00:00 +16°C° 0 mm 0 mps 654 mmHg 97%
    01:00 +15°C° 0 mm 0 mps 654 mmHg 96%
    02:00 +15°C° 0 mm 0 mps 653 mmHg 96%
    03:00 +15°C° 0 mm 0 mps 653 mmHg 96%
    04:00 +14°C° 0 mm 0 mps 653 mmHg 95%
    05:00 +14°C° 0 mm 0 mps 653 mmHg 94%
    06:00 +15°C° 0 mm 1 mps 653 mmHg 94%
    07:00 +17°C° 0 mm 0 mps 654 mmHg 82%
    08:00 +19°C° 0 mm 0 mps 655 mmHg 71%
    09:00 +22°C° 0 mm 0 mps 656 mmHg 60%
    10:00 +25°C° 0 mm 1 mps 656 mmHg 56%
    11:00 +27°C° 0 mm 1 mps 656 mmHg 52%
    12:00 +28°C° 0 mm 2 mps 656 mmHg 48%
    13:00 +27°C° 0.3 mm 2 mps 655 mmHg 56%
    14:00 +26°C° 0.3 mm 2 mps 654 mmHg 64%
    15:00 +25°C° 0.3 mm 2 mps 654 mmHg 72%
    16:00 +24°C° 1.1 mm 1 mps 653 mmHg 80%
    17:00 +23°C° 1.1 mm 1 mps 653 mmHg 87%
    18:00 +21°C° 1.1 mm 1 mps 653 mmHg 95%
    19:00 +20°C° 0.2 mm 1 mps 653 mmHg 95%
    20:00 +19°C° 0.2 mm 1 mps 654 mmHg 95%
    21:00 +18°C° 0.2 mm 1 mps 654 mmHg 96%
    22:00 +18°C° 0 mm 1 mps 654 mmHg 95%
    23:00 +18°C° 0 mm 1 mps 654 mmHg 95%

    25 July, Thursday

    Time Temperature Precipitation Wind Pressure Humidity
    00:00 +15°C° 0 mm 0 mps 654 mmHg 95%
    01:00 +16°C° 0 mm 1 mps 653 mmHg 95%
    02:00 +16°C° 0 mm 1 mps 653 mmHg 94%
    03:00 +15°C° 0 mm 1 mps 652 mmHg 94%
    04:00 +16°C° 0 mm 1 mps 653 mmHg 92%
    05:00 +15°C° 0 mm 0 mps 653 mmHg 90%
    06:00 +15°C° 0 mm 0 mps 653 mmHg 88%
    07:00 +17°C° 0 mm 0 mps 654 mmHg 81%
    08:00 +19°C° 0 mm 0 mps 655 mmHg 74%
    09:00 +21°C° 0 mm 0 mps 656 mmHg 66%
    10:00 +24°C° 0 mm 1 mps 656 mmHg 63%
    11:00 +26°C° 0 mm 1 mps 656 mmHg 60%
    12:00 +27°C° 0 mm 1 mps 656 mmHg 57%
    13:00 +26°C° 0.9 mm 1 mps 655 mmHg 67%
    14:00 +25°C° 0.9 mm 1 mps 654 mmHg 77%
    15:00 +24°C° 0.9 mm 1 mps 653 mmHg 87%
    16:00 +23°C° 0.6 mm 1 mps 653 mmHg 90%
    17:00 +20°C° 0.6 mm 0 mps 653 mmHg 93%
    18:00 +19°C° 0.6 mm 0 mps 653 mmHg 95%
    19:00 +18°C° 0.3 mm 0 mps 654 mmHg 96%
    20:00 +18°C° 0.3 mm 0 mps 654 mmHg 97%
    21:00 +17°C° 0.3 mm 0 mps 654 mmHg 98%
    22:00 +16°C° 0.7 mm 0 mps 654 mmHg 98%
    23:00 +16°C° 0.7 mm 0 mps 654 mmHg 98%
    Show more